User: anonymous   Login
Location: Pitton
(51.0667°N, 1.7000°W)
Time: 09:36:25
(UTC+00:00)
Language:

H-2A R/B - Orbit

View from above orbital plane
View from above orbital plane
View from above satellite
View from above satellite

Ground track
Ground track

The orbit data is extracted from the following two-line orbital elements,

1 27601U 02056E   19318.56103146  .00000038  00000-0  28856-4 0  9991
2 27601  98.2571   0.1032 0071829 199.5363 330.6490 14.31917445883798
Epoch (UTC): 14 November 2019 13:27:53
Eccentricity: 0.0071829
inclination: 98.2571°
perigee height: 734 km
apogee height: 837 km
right ascension of ascending node: 0.1032°
argument of perigee: 199.5363°
revolutions per day: 14.31917445
mean anomaly at epoch: 330.6490°
orbit number at epoch: 88379

The dashed part of the orbit path shows where the satellite is in the earth's shadow,  

DLR